Time,TemperatureF,DewpointF,PressureIn,WindDirection,WindDirectionDegrees,WindSpeedMPH,WindSpeedGustMPH,Humidity,HourlyPrecipIn,Conditions,Clouds,dailyrainin,SoftwareType,DateUTC
2013-04-02 00:01:00,27.0,22.2,29.93,SW,229,3.0,6.0,82,0.00,,,0.00,Wunderground v.1.15,2013-04-02 04:01:00,
2013-04-02 00:11:00,27.1,21.7,29.94,WSW,246,4.0,8.0,80,0.00,,,0.00,Wunderground v.1.15,2013-04-02 04:11:00,
2013-04-02 00:20:00,27.4,21.4,29.93,WSW,250,5.0,5.0,78,0.00,,,0.00,Wunderground v.1.15,2013-04-02 04:20:00,
2013-04-02 00:30:00,27.5,20.9,29.93,West,279,4.0,6.0,76,0.00,,,0.00,Wunderground v.1.15,2013-04-02 04:30:00,
2013-04-02 00:40:00,27.9,21.0,29.94,WSW,258,6.0,8.0,75,0.00,,,0.00,Wunderground v.1.15,2013-04-02 04:40:00,
2013-04-02 00:50:00,27.9,20.7,29.94,WSW,253,7.0,7.0,74,0.00,,,0.00,Wunderground v.1.15,2013-04-02 04:50:00,
2013-04-02 01:00:00,27.9,20.7,29.94,West,277,6.0,6.0,74,0.00,,,0.00,Wunderground v.1.15,2013-04-02 05:00:00,
2013-04-02 01:10:00,27.6,20.7,29.94,NW,309,6.0,6.0,75,0.00,,,0.00,Wunderground v.1.15,2013-04-02 05:10:00,
2013-04-02 01:20:00,27.3,20.7,29.94,West,281,6.0,6.0,76,0.00,,,0.00,Wunderground v.1.15,2013-04-02 05:20:00,
2013-04-02 01:30:00,27.2,20.3,29.94,WSW,238,6.0,7.0,75,0.00,,,0.00,Wunderground v.1.15,2013-04-02 05:30:00,
2013-04-02 01:40:00,27.1,20.2,29.95,WSW,241,6.0,6.0,75,0.00,,,0.00,Wunderground v.1.15,2013-04-02 05:40:00,
2013-04-02 01:50:00,27.1,20.2,29.94,WSW,238,5.0,7.0,75,0.00,,,0.00,Wunderground v.1.15,2013-04-02 05:50:00,
2013-04-02 02:00:00,27.1,19.9,29.95,West,262,5.0,5.0,74,0.00,,,0.00,Wunderground v.1.15,2013-04-02 06:00:00,
2013-04-02 02:10:00,27.0,20.1,29.95,West,267,4.0,6.0,75,0.00,,,0.00,Wunderground v.1.15,2013-04-02 06:10:00,
2013-04-02 02:20:00,27.0,20.1,29.95,West,265,4.0,7.0,75,0.00,,,0.00,Wunderground v.1.15,2013-04-02 06:20:00,
2013-04-02 02:30:00,27.2,19.7,29.95,WSW,258,5.0,5.0,73,0.00,,,0.00,Wunderground v.1.15,2013-04-02 06:30:00,
2013-04-02 02:41:00,27.2,19.0,29.94,WNW,286,7.0,7.0,71,0.00,,,0.00,Wunderground v.1.15,2013-04-02 06:41:00,
2013-04-02 02:51:00,26.9,18.7,29.94,NNW,329,5.0,6.0,71,0.00,,,0.00,Wunderground v.1.15,2013-04-02 06:51:00,
2013-04-02 03:01:00,26.6,18.5,29.94,WNW,299,6.0,6.0,71,0.00,,,0.00,Wunderground v.1.15,2013-04-02 07:01:00,
2013-04-02 03:11:00,26.2,18.4,29.94,West,267,4.0,7.0,72,0.00,,,0.00,Wunderground v.1.15,2013-04-02 07:11:00,
2013-04-02 03:21:00,26.3,18.5,29.94,WSW,238,5.0,6.0,72,0.00,,,0.00,Wunderground v.1.15,2013-04-02 07:21:00,
2013-04-02 03:31:00,26.5,18.7,29.94,West,265,6.0,6.0,72,0.00,,,0.00,Wunderground v.1.15,2013-04-02 07:31:00,
2013-04-02 03:41:00,26.4,18.6,29.95,WNW,294,5.0,8.0,72,0.00,,,0.00,Wunderground v.1.15,2013-04-02 07:41:00,
2013-04-02 03:51:00,26.3,18.8,29.95,SW,228,6.0,6.0,73,0.00,,,0.00,Wunderground v.1.15,2013-04-02 07:51:00,
2013-04-02 04:01:00,26.2,19.0,29.94,West,265,6.0,6.0,74,0.00,,,0.00,Wunderground v.1.15,2013-04-02 08:01:00,
2013-04-02 04:20:00,25.7,19.8,29.94,West,259,5.0,9.0,78,0.00,,,0.00,Wunderground v.1.15,2013-04-02 08:20:00,
2013-04-02 04:30:00,25.8,19.9,29.94,WNW,288,6.0,6.0,78,0.00,,,0.00,Wunderground v.1.15,2013-04-02 08:30:00,
2013-04-02 04:40:00,25.6,19.4,29.94,WSW,247,5.0,6.0,77,0.00,,,0.00,Wunderground v.1.15,2013-04-02 08:40:00,
2013-04-02 04:50:00,25.5,19.0,29.94,WSW,244,5.0,6.0,76,0.00,,,0.00,Wunderground v.1.15,2013-04-02 08:50:00,
2013-04-02 05:00:00,25.5,19.0,29.94,WSW,237,7.0,8.0,76,0.00,,,0.00,Wunderground v.1.15,2013-04-02 09:00:00,
2013-04-02 05:10:00,25.4,18.9,29.94,WSW,250,6.0,6.0,76,0.00,,,0.00,Wunderground v.1.15,2013-04-02 09:10:00,
2013-04-02 05:20:00,25.4,18.9,29.95,SW,235,5.0,5.0,76,0.00,,,0.00,Wunderground v.1.15,2013-04-02 09:20:00,
2013-04-02 05:30:00,25.5,19.3,29.95,West,262,7.0,7.0,77,0.00,,,0.00,Wunderground v.1.15,2013-04-02 09:30:00,
2013-04-02 05:40:00,25.6,19.7,29.95,West,271,6.0,6.0,78,0.00,,,0.00,Wunderground v.1.15,2013-04-02 09:40:00,
2013-04-02 05:50:00,25.4,19.8,29.95,West,263,4.0,6.0,79,0.00,,,0.00,Wunderground v.1.15,2013-04-02 09:50:00,
2013-04-02 06:01:00,25.3,20.0,29.96,West,275,5.0,5.0,80,0.00,,,0.00,Wunderground v.1.15,2013-04-02 10:01:00,
2013-04-02 06:10:00,25.2,20.2,29.96,WSW,240,5.0,5.0,81,0.00,,,0.00,Wunderground v.1.15,2013-04-02 10:10:00,
2013-04-02 06:20:00,24.8,20.7,29.97,WNW,292,6.0,6.0,84,0.00,,,0.00,Wunderground v.1.15,2013-04-02 10:20:00,
2013-04-02 06:30:00,24.2,20.6,29.96,WNW,288,5.0,5.0,86,0.00,,,0.00,Wunderground v.1.15,2013-04-02 10:30:00,
2013-04-02 06:40:00,24.3,21.0,29.97,WSW,241,4.0,4.0,87,0.00,,,0.00,Wunderground v.1.15,2013-04-02 10:40:00,
2013-04-02 06:50:00,24.5,20.6,29.97,West,272,4.0,5.0,85,0.00,,,0.00,Wunderground v.1.15,2013-04-02 10:50:00,
2013-04-02 07:00:00,24.6,20.5,29.98,WSW,258,5.0,10.0,84,0.00,,,0.00,Wunderground v.1.15,2013-04-02 11:00:00,
2013-04-02 07:10:00,24.1,20.5,29.99,WSW,250,7.0,7.0,86,0.00,,,0.00,Wunderground v.1.15,2013-04-02 11:10:00,
2013-04-02 07:20:00,24.0,21.0,29.99,WNW,285,6.0,13.0,88,0.00,,,0.00,Wunderground v.1.15,2013-04-02 11:20:00,
2013-04-02 07:30:00,24.1,20.8,29.99,WSW,241,5.0,5.0,87,0.00,,,0.00,Wunderground v.1.15,2013-04-02 11:30:00,
2013-04-02 07:40:00,23.9,20.6,29.99,WSW,254,5.0,13.0,87,0.00,,,0.00,Wunderground v.1.15,2013-04-02 11:40:00,
2013-04-02 07:50:00,24.2,20.1,29.99,WSW,244,6.0,13.0,84,0.00,,,0.00,Wunderground v.1.15,2013-04-02 11:50:00,
2013-04-02 08:00:00,24.2,20.1,30.00,SW,221,6.0,6.0,84,0.00,,,0.00,Wunderground v.1.15,2013-04-02 12:00:00,
2013-04-02 08:10:00,24.7,20.8,30.00,WSW,249,6.0,13.0,85,0.00,,,0.00,Wunderground v.1.15,2013-04-02 12:10:00,
2013-04-02 08:20:00,25.3,20.6,30.00,West,265,6.0,6.0,82,0.00,,,0.00,Wunderground v.1.15,2013-04-02 12:20:00,
2013-04-02 08:30:00,25.8,20.8,30.00,West,271,5.0,13.0,81,0.00,,,0.00,Wunderground v.1.15,2013-04-02 12:30:00,
2013-04-02 08:40:00,26.3,20.4,30.01,WSW,251,7.0,7.0,78,0.00,,,0.00,Wunderground v.1.15,2013-04-02 12:40:00,
2013-04-02 08:50:00,26.1,20.2,30.01,WSW,247,7.0,7.0,78,0.00,,,0.00,Wunderground v.1.15,2013-04-02 12:50:00,
2013-04-02 09:00:00,26.7,20.1,30.01,WSW,237,7.0,13.0,76,0.00,,,0.00,Wunderground v.1.15,2013-04-02 13:00:00,
2013-04-02 09:10:00,27.0,20.4,30.01,WNW,288,9.0,9.0,76,0.00,,,0.00,Wunderground v.1.15,2013-04-02 13:10:00,
2013-04-02 09:20:00,26.5,21.5,30.02,WSW,254,9.0,9.0,81,0.00,,,0.00,Wunderground v.1.15,2013-04-02 13:20:00,
2013-04-02 09:30:00,26.0,22.1,30.02,West,265,7.0,7.0,85,0.00,,,0.00,Wunderground v.1.15,2013-04-02 13:30:00,
2013-04-02 09:40:00,26.7,22.5,30.02,WSW,252,7.0,13.0,84,0.00,,,0.00,Wunderground v.1.15,2013-04-02 13:40:00,
2013-04-02 09:50:00,26.8,22.0,30.02,WNW,303,7.0,13.0,82,0.00,,,0.00,Wunderground v.1.15,2013-04-02 13:50:00,
2013-04-02 10:00:00,27.7,22.3,30.02,West,265,6.0,13.0,80,0.00,,,0.00,Wunderground v.1.15,2013-04-02 14:00:00,
2013-04-02 10:10:00,28.2,21.9,30.02,WSW,248,8.0,8.0,77,0.00,,,0.00,Wunderground v.1.15,2013-04-02 14:10:00,
2013-04-02 10:20:00,26.5,22.3,30.03,SW,236,9.0,9.0,84,0.00,,,0.00,Wunderground v.1.15,2013-04-02 14:20:00,
2013-04-02 10:30:00,27.3,22.5,30.03,SW,229,7.0,7.0,82,0.00,,,0.00,Wunderground v.1.15,2013-04-02 14:30:00,
2013-04-02 10:40:00,27.4,23.5,30.03,WNW,288,7.0,7.0,85,0.00,,,0.00,Wunderground v.1.15,2013-04-02 14:40:00,
2013-04-02 10:50:00,27.6,23.4,30.03,West,276,8.0,8.0,84,0.00,,,0.00,Wunderground v.1.15,2013-04-02 14:50:00,
2013-04-02 11:00:00,28.7,23.6,30.03,West,259,7.0,7.0,81,0.00,,,0.00,Wunderground v.1.15,2013-04-02 15:00:00,
2013-04-02 11:11:00,29.0,23.3,30.03,NW,311,7.0,7.0,79,0.00,,,0.00,Wunderground v.1.15,2013-04-02 15:11:00,
2013-04-02 11:20:00,28.8,23.1,30.03,West,268,6.0,13.0,79,0.00,,,0.00,Wunderground v.1.15,2013-04-02 15:20:00,
2013-04-02 11:30:00,29.1,22.5,30.03,West,277,9.0,9.0,76,0.00,,,0.00,Wunderground v.1.15,2013-04-02 15:30:00,
2013-04-02 11:41:00,29.7,22.4,30.03,West,271,8.0,8.0,74,0.00,,,0.00,Wunderground v.1.15,2013-04-02 15:41:00,
2013-04-02 11:50:00,31.9,25.2,30.03,NNW,345,7.0,13.0,76,0.00,,,0.00,Wunderground v.1.15,2013-04-02 15:50:00,
2013-04-02 12:01:00,30.9,20.9,30.03,NW,308,9.0,9.0,66,0.00,,,0.00,Wunderground v.1.15,2013-04-02 16:01:00,
2013-04-02 12:11:00,29.5,22.2,30.03,WNW,301,8.0,8.0,74,0.00,,,0.00,Wunderground v.1.15,2013-04-02 16:11:00,
2013-04-02 12:21:00,30.5,22.9,30.02,WSW,246,8.0,8.0,73,0.00,,,0.00,Wunderground v.1.15,2013-04-02 16:21:00,
2013-04-02 12:31:00,31.5,22.5,30.02,NNW,341,6.0,13.0,69,0.00,,,0.00,Wunderground v.1.15,2013-04-02 16:31:00,
2013-04-02 12:41:00,30.4,22.1,30.03,SW,235,8.0,13.0,71,0.00,,,0.00,Wunderground v.1.15,2013-04-02 16:41:00,
2013-04-02 12:51:00,32.7,22.9,30.02,West,273,7.0,13.0,67,0.00,,,0.00,Wunderground v.1.15,2013-04-02 16:51:00,
2013-04-02 13:01:00,31.2,21.2,30.02,WSW,257,9.0,9.0,66,0.00,,,0.00,Wunderground v.1.15,2013-04-02 17:01:00,
2013-04-02 13:11:00,32.7,21.1,30.01,West,265,8.0,13.0,62,0.00,,,0.00,Wunderground v.1.15,2013-04-02 17:11:00,
2013-04-02 13:20:00,32.2,23.2,30.02,West,271,9.0,9.0,69,0.00,,,0.00,Wunderground v.1.15,2013-04-02 17:20:00,
2013-04-02 13:30:00,34.0,23.1,30.01,West,281,9.0,13.0,64,0.00,,,0.00,Wunderground v.1.15,2013-04-02 17:30:00,
2013-04-02 13:40:00,32.6,22.1,30.01,WSW,254,8.0,13.0,65,0.00,,,0.00,Wunderground v.1.15,2013-04-02 17:40:00,
2013-04-02 13:50:00,30.9,22.6,30.01,WSW,243,10.0,10.0,71,0.00,,,0.00,Wunderground v.1.15,2013-04-02 17:50:00,
2013-04-02 14:00:00,33.3,25.2,30.01,SW,227,7.0,13.0,72,0.00,,,0.00,Wunderground v.1.15,2013-04-02 18:00:00,
2013-04-02 14:10:00,32.3,21.8,30.01,WSW,243,9.0,13.0,65,0.00,,,0.00,Wunderground v.1.15,2013-04-02 18:10:00,
2013-04-02 14:20:00,30.8,26.8,30.01,WSW,257,11.0,11.0,85,0.00,,,0.00,Wunderground v.1.15,2013-04-02 18:20:00,
2013-04-02 14:30:00,33.5,24.8,30.00,West,272,7.0,13.0,70,0.00,,,0.00,Wunderground v.1.15,2013-04-02 18:30:00,
2013-04-02 14:40:00,31.6,23.6,30.01,WSW,245,9.0,15.0,72,0.00,,,0.00,Wunderground v.1.15,2013-04-02 18:40:00,
2013-04-02 14:50:00,31.1,26.2,30.01,West,273,9.0,9.0,82,0.00,,,0.00,Wunderground v.1.15,2013-04-02 18:50:00,
2013-04-02 15:00:00,33.4,25.0,30.00,West,269,6.0,13.0,71,0.00,,,0.00,Wunderground v.1.15,2013-04-02 19:00:00,
2013-04-02 15:10:00,31.4,24.4,30.01,West,260,11.0,14.0,75,0.00,,,0.00,Wunderground v.1.15,2013-04-02 19:10:00,
2013-04-02 15:20:00,31.1,24.1,30.01,WSW,257,9.0,13.0,75,0.00,,,0.00,Wunderground v.1.15,2013-04-02 19:20:00,
2013-04-02 15:30:00,32.4,26.6,30.01,West,278,9.0,13.0,79,0.00,,,0.00,Wunderground v.1.15,2013-04-02 19:30:00,
2013-04-02 15:40:00,32.6,24.6,30.00,North,10,10.0,10.0,72,0.00,,,0.00,Wunderground v.1.15,2013-04-02 19:40:00,
2013-04-02 15:50:00,32.5,27.3,30.01,NNW,346,11.0,11.0,81,0.00,,,0.00,Wunderground v.1.15,2013-04-02 19:50:00,
2013-04-02 16:00:00,32.4,26.3,30.00,WNW,282,7.0,7.0,78,0.00,,,0.00,Wunderground v.1.15,2013-04-02 20:00:00,
2013-04-02 16:10:00,33.6,27.2,30.01,West,265,9.0,13.0,77,0.00,,,0.00,Wunderground v.1.15,2013-04-02 20:10:00,
2013-04-02 16:20:00,31.9,24.6,30.01,WNW,286,12.0,13.0,74,0.00,,,0.00,Wunderground v.1.15,2013-04-02 20:20:00,
2013-04-02 16:30:00,32.4,26.3,30.01,WSW,256,9.0,13.0,78,0.00,,,0.00,Wunderground v.1.15,2013-04-02 20:30:00,
2013-04-02 16:40:00,33.0,25.6,30.01,West,271,9.0,20.0,74,0.00,,,0.00,Wunderground v.1.15,2013-04-02 20:40:00,
2013-04-02 16:50:00,31.4,26.5,30.01,West,262,12.0,12.0,82,0.00,,,0.00,Wunderground v.1.15,2013-04-02 20:50:00,
2013-04-02 17:01:00,32.1,27.2,30.02,West,271,10.0,10.0,82,0.00,,,0.00,Wunderground v.1.15,2013-04-02 21:01:00,
2013-04-02 17:11:00,31.9,25.8,30.02,WNW,288,9.0,9.0,78,0.00,,,0.00,Wunderground v.1.15,2013-04-02 21:11:00,
2013-04-02 17:21:00,32.1,25.7,30.02,WSW,239,9.0,9.0,77,0.00,,,0.00,Wunderground v.1.15,2013-04-02 21:21:00,
2013-04-02 17:31:00,31.5,25.4,30.03,SW,236,9.0,9.0,78,0.00,,,0.00,Wunderground v.1.15,2013-04-02 21:31:00,
2013-04-02 17:41:00,31.3,26.1,30.02,WSW,247,9.0,9.0,81,0.00,,,0.00,Wunderground v.1.15,2013-04-02 21:41:00,
2013-04-02 18:01:00,30.9,25.8,30.03,West,277,10.0,10.0,81,0.00,,,0.00,Wunderground v.1.15,2013-04-02 22:01:00,
2013-04-02 18:11:00,31.1,25.7,30.04,West,259,8.0,8.0,80,0.00,,,0.00,Wunderground v.1.15,2013-04-02 22:11:00,
2013-04-02 18:20:00,31.5,26.3,30.04,West,277,9.0,9.0,81,0.00,,,0.00,Wunderground v.1.15,2013-04-02 22:20:00,
2013-04-02 18:30:00,31.6,26.1,30.04,WSW,245,9.0,9.0,80,0.00,,,0.00,Wunderground v.1.15,2013-04-02 22:30:00,
2013-04-02 18:40:00,31.4,25.6,30.04,WSW,242,9.0,13.0,79,0.00,,,0.00,Wunderground v.1.15,2013-04-02 22:40:00,
2013-04-02 18:50:00,31.2,25.4,30.05,WSW,254,9.0,9.0,79,0.00,,,0.00,Wunderground v.1.15,2013-04-02 22:50:00,
2013-04-02 19:30:00,30.6,24.9,30.06,SW,234,8.0,13.0,79,0.00,,,0.00,Wunderground v.1.15,2013-04-02 23:30:00,
2013-04-02 19:40:00,30.3,24.6,30.06,SW,228,7.0,7.0,79,0.00,,,0.00,Wunderground v.1.15,2013-04-02 23:40:00,
2013-04-02 19:50:00,30.1,24.7,30.06,WSW,246,6.0,6.0,80,0.00,,,0.00,Wunderground v.1.15,2013-04-02 23:50:00,
2013-04-02 20:00:00,30.2,24.5,30.07,WSW,248,6.0,6.0,79,0.00,,,0.00,Wunderground v.1.15,2013-04-03 00:00:00,
2013-04-02 20:10:00,30.2,24.2,30.07,WSW,258,5.0,5.0,78,0.00,,,0.00,Wunderground v.1.15,2013-04-03 00:10:00,
2013-04-02 20:20:00,30.0,23.7,30.07,West,260,5.0,5.0,77,0.00,,,0.00,Wunderground v.1.15,2013-04-03 00:20:00,
2013-04-02 20:30:00,29.9,22.9,30.08,SW,229,4.0,4.0,75,0.00,,,0.00,Wunderground v.1.15,2013-04-03 00:30:00,
2013-04-02 20:40:00,30.6,20.2,30.08,WSW,241,5.0,13.0,65,0.00,,,0.00,Wunderground v.1.15,2013-04-03 00:40:00,
2013-04-02 20:50:00,31.0,19.5,30.09,NNW,340,8.0,8.0,62,0.00,,,0.00,Wunderground v.1.15,2013-04-03 00:50:00,
2013-04-02 21:00:00,30.8,18.9,30.09,WSW,238,7.0,7.0,61,0.00,,,0.00,Wunderground v.1.15,2013-04-03 01:00:00,
2013-04-02 21:10:00,30.7,18.8,30.10,West,280,6.0,6.0,61,0.00,,,0.00,Wunderground v.1.15,2013-04-03 01:10:00,
2013-04-02 21:21:00,30.6,19.1,30.10,SSW,211,7.0,7.0,62,0.00,,,0.00,Wunderground v.1.15,2013-04-03 01:21:00,
2013-04-02 21:30:00,30.5,19.0,30.10,WNW,286,6.0,6.0,62,0.00,,,0.00,Wunderground v.1.15,2013-04-03 01:30:00,
2013-04-02 21:41:00,30.4,18.5,30.10,WNW,286,7.0,7.0,61,0.00,,,0.00,Wunderground v.1.15,2013-04-03 01:41:00,
2013-04-02 21:51:00,30.2,18.7,30.10,WNW,302,5.0,13.0,62,0.00,,,0.00,Wunderground v.1.15,2013-04-03 01:51:00,
2013-04-02 22:01:00,30.1,18.6,30.10,WSW,240,6.0,6.0,62,0.00,,,0.00,Wunderground v.1.15,2013-04-03 02:01:00,
2013-04-02 22:11:00,30.1,19.4,30.10,West,259,6.0,13.0,64,0.00,,,0.00,Wunderground v.1.15,2013-04-03 02:11:00,
2013-04-02 22:20:00,30.1,19.4,30.10,West,277,6.0,6.0,64,0.00,,,0.00,Wunderground v.1.15,2013-04-03 02:20:00,
2013-04-02 22:30:00,29.9,19.6,30.10,West,259,5.0,5.0,65,0.00,,,0.00,Wunderground v.1.15,2013-04-03 02:30:00,
2013-04-02 22:40:00,29.8,19.5,30.10,West,273,5.0,13.0,65,0.00,,,0.00,Wunderground v.1.15,2013-04-03 02:40:00,
2013-04-02 22:50:00,29.8,19.8,30.10,West,271,5.0,5.0,66,0.00,,,0.00,Wunderground v.1.15,2013-04-03 02:50:00,
2013-04-02 23:00:00,29.5,19.9,30.10,SW,232,4.0,4.0,67,0.00,,,0.00,Wunderground v.1.15,2013-04-03 03:00:00,
2013-04-02 23:10:00,29.5,20.2,30.10,WSW,237,4.0,13.0,68,0.00,,,0.00,Wunderground v.1.15,2013-04-03 03:10:00,
2013-04-02 23:20:00,29.1,20.2,30.10,WSW,243,4.0,13.0,69,0.00,,,0.00,Wunderground v.1.15,2013-04-03 03:20:00,
2013-04-02 23:30:00,29.0,20.4,30.10,West,280,5.0,5.0,70,0.00,,,0.00,Wunderground v.1.15,2013-04-03 03:30:00,
2013-04-02 23:40:00,29.2,20.6,30.10,West,265,5.0,13.0,70,0.00,,,0.00,Wunderground v.1.15,2013-04-03 03:40:00,
2013-04-02 23:50:00,29.4,20.8,30.10,WNW,286,5.0,5.0,70,0.00,,,0.00,Wunderground v.1.15,2013-04-03 03:50:00,